AMC-3 1 24936U 97050A 26167.41642038 .00000063 00000+0 00000+0 0 9992 2 24936 8.1629 63.9939 0004076 26.6590 196.9475 0.99061496 52424 NSS-11 1 26554U 00059A 26167.57709390 .00000021 00000+0 00000+0 0 9999 2 26554 2.1255 81.3973 0002787 351.9167 215.2768 1.00271048 41285 AMC-6 1 26580U 00067A 26167.58680061 .00000086 00000+0 00000+0 0 9992 2 26580 0.1514 83.0640 0003484 14.3485 243.6641 1.00273221 93881 AMC-15 1 28446U 04041A 26167.59278065 -.00000090 00000+0 00000+0 0 9995 2 28446 0.0174 333.5651 0002125 124.2344 275.4222 1.00271344 79297 NSS-10 1 28526U 05003A 26167.42117547 -.00000257 00000+0 00000+0 0 9997 2 28526 6.4481 70.4629 0002623 8.9791 299.4160 1.00270013 53141 ASTRA 1KR 1 29055U 06012A 26167.11832373 .00000118 00000+0 00000+0 0 9998 2 29055 0.4715 83.1998 0003258 356.7481 246.0121 1.00270914 45683 ASTRA 1L 1 31306U 07016A 26167.46610789 -.00000186 00000+0 00000+0 0 9994 2 31306 1.3204 81.5826 0005133 11.2090 315.2661 1.00271247 44972 ASTRA 4A 1 32299U 07057A 26167.54313277 .00000031 00000+0 00000+0 0 9990 2 32299 0.0135 8.5066 0002106 79.9083 16.7161 1.00271454 51648 ASTRA 1M 1 33436U 08057A 26167.11832373 .00000120 00000+0 00000+0 0 9990 2 33436 0.2941 82.4376 0004653 24.1649 219.7454 1.00271117 45721 NSS-9 1 33749U 09008A 26167.57856725 .00000069 00000+0 00000+0 0 9993 2 33749 1.2607 82.6609 0001953 343.6224 229.9139 1.00269789 63519 SES-7 (PROTOSTAR 2) 1 34941U 09027A 26167.65529660 -.00000347 00000+0 00000+0 0 9993 2 34941 0.0371 63.6212 0000684 143.5886 41.8939 1.00271176 62622 NSS-12 1 36032U 09058A 26167.55361947 .00000069 00000+0 00000+0 0 9991 2 36032 0.0439 50.8482 0004507 0.7114 109.5769 1.00273918 60912 SES-1 1 36516U 10016A 26167.59356065 -.00000116 00000+0 00000+0 0 9997 2 36516 0.0127 336.0598 0002495 108.1319 293.3511 1.00271096 59026 ASTRA 3B 1 36581U 10021A 26167.54694611 .00000134 00000+0 00000+0 0 9991 2 36581 1.4682 83.5648 0004166 4.5172 37.1176 1.00270619 58864 SES-3 1 37748U 11035A 26167.59321398 -.00000104 00000+0 00000+0 0 9995 2 37748 1.3258 83.0884 0002230 353.5978 298.7323 1.00271266 54589 ASTRA 1N 1 37775U 11041A 26167.11832373 .00000119 00000+0 00000+0 0 9995 2 37775 0.0950 45.4404 0006015 49.7303 231.0140 1.00270923 44513 SES-2 1 37809U 11049A 26167.52504839 -.00000197 00000+0 00000+0 0 9996 2 37809 0.0621 99.9562 0002629 344.3204 282.5310 1.00270380 53951 QUETZSAT 1 1 37826U 11054A 26167.52704174 -.00000243 00000+0 00000+0 0 9997 2 37826 0.0231 40.5428 0002511 47.5104 289.4784 1.00270375 49861 SES-4 1 38087U 12007A 26166.18340823 -.00000164 00000+0 00000+0 0 9996 2 38087 0.0226 29.0397 0002642 70.8671 207.5944 1.00270340 52208 SES-5 1 38652U 12036A 26167.54330610 .00000032 00000+0 00000+0 0 9993 2 38652 0.0485 314.0298 0001806 132.6034 18.7495 1.00272264 44459 ASTRA 2F 1 38778U 12051A 26167.54781278 .00000148 00000+0 00000+0 0 9997 2 38778 0.0644 257.4859 0001459 283.4524 309.2675 1.00269484 41131 SES-6 1 39172U 13026A 26167.53385939 -.00000263 00000+0 00000+0 0 9991 2 39172 0.0194 14.6129 0002483 86.3512 315.5127 1.00269469 47713 O3B FM5 1 39188U 13031A 26166.44086083 -.00000018 00000+0 00000+0 0 9999 2 39188 0.0984 344.8011 0002960 85.9917 289.2391 5.00116505236951 O3B FM4 1 39189U 13031B 26167.35984749 -.00000020 00000+0 00000+0 0 9990 2 39189 0.0426 346.1293 0005052 89.1448 284.7808 5.00115244237009 O3B FM2 1 39190U 13031C 26167.42535762 -.00000020 00000+0 00000+0 0 9997 2 39190 0.0377 340.7412 0002754 101.1633 278.1257 5.00115988237073 O3B PFM 1 39191U 13031D 26167.23958757 -.00000020 00000+0 00000+0 0 9990 2 39191 0.0678 352.1157 0005350 88.3673 279.5765 5.00115938236620 ASTRA 2E 1 39285U 13056A 26167.54789944 .00000149 00000+0 00000+0 0 9996 2 39285 0.0574 338.5823 0002749 110.2740 41.6964 1.00272013 46415 SES-8 1 39460U 13071A 26167.64908574 -.00000271 00000+0 00000+0 0 9998 2 39460 0.0286 283.5843 0002610 165.5591 144.4380 1.00269985 44422 ASTRA 5B 1 39617U 14011B 26167.47555459 .00000136 00000+0 00000+0 0 9997 2 39617 0.0452 340.6495 0001744 94.4588 24.3375 1.00273179 44668 O3B FM3 1 40079U 14038A 26167.10637169 -.00000019 00000+0 00000+0 0 9990 2 40079 0.0482 353.8250 0002243 149.4288 216.7607 5.00115637212999 O3B FM7 1 40080U 14038B 26167.45226767 -.00000020 00000+0 00000+0 0 9990 2 40080 0.0474 344.9352 0003835 73.9535 301.1478 5.00115602217846 O3B FM6 1 40081U 14038C 26167.27935795 -.00000020 00000+0 00000+0 0 9999 2 40081 0.0473 350.5456 0002635 93.6222 275.8612 5.00115692217782 O3B FM8 1 40082U 14038D 26167.33261270 -.00000020 00000+0 00000+0 0 9997 2 40082 0.0473 349.3358 0002746 99.1657 271.5290 5.00115989217904 O3B FM10 1 40348U 14083A 26167.35983544 -.00000020 00000+0 00000+0 0 9999 2 40348 0.0382 329.5402 0002604 114.9488 275.5397 5.00115183209852 O3B FM11 1 40349U 14083B 26167.37248652 -.00000020 00000+0 00000+0 0 9996 2 40349 0.0557 354.5573 0002710 74.3068 291.1638 5.00115503209875 O3B FM12 1 40350U 14083C 26167.19961076 -.00000020 00000+0 00000+0 0 9990 2 40350 0.0548 354.6197 0002527 87.7436 277.6645 5.00115898209877 O3B FM9 1 40351U 14083D 26167.02655040 -.00000019 00000+0 00000+0 0 9992 2 40351 0.0567 353.8034 0002704 89.3367 276.8899 5.00115941210017 ASTRA 2G 1 40364U 14089A 26167.54789944 .00000148 00000+0 00000+0 0 9992 2 40364 0.0456 353.8784 0004484 75.8035 60.5876 1.00273351 41964 SES-9 1 41380U 16013A 26166.35175124 -.00000342 00000+0 00000+0 0 9994 2 41380 0.0108 340.5696 0002010 102.0221 55.9732 1.00270920 37429 SES-10 1 42432U 17017A 26167.52900603 -.00000274 00000+0 00000+0 0 9990 2 42432 0.0214 34.4598 0002576 56.2690 297.6100 1.00268943 33740 SES-15 1 42709U 17026A 26167.51672836 .00000059 00000+0 00000+0 0 9990 2 42709 0.0194 338.0719 0000402 53.1315 290.4171 1.00268066 7429 SES-11 (ECHOSTAR 105) 1 42967U 17063A 26167.56068862 -.00000091 00000+0 00000+0 0 9997 2 42967 0.0168 337.4237 0002691 93.0584 291.2456 1.00270643 31715 SES-14 1 43175U 18012B 26167.53281939 -.00000280 00000+0 00000+0 0 9993 2 43175 0.0216 32.2928 0000807 50.1618 326.6543 1.00269969 7012 O3B FM15 1 43231U 18024A 26166.49368371 -.00000018 00000+0 00000+0 0 9998 2 43231 0.0515 2.0790 0002621 80.8277 277.1228 5.00115742150940 O3B FM16 1 43232U 18024B 26167.34557842 -.00000020 00000+0 00000+0 0 9990 2 43232 0.0511 6.6321 0002644 75.9130 277.4839 5.00115923150903 O3B FM14 1 43233U 18024C 26167.38638217 -.00000020 00000+0 00000+0 0 9991 2 43233 0.0498 7.5343 0002880 77.5282 274.9693 5.00115698150910 O3B FM13 1 43234U 18024D 26166.25294988 -.00000017 00000+0 00000+0 0 9996 2 43234 0.0569 264.3115 0023994 53.5604 41.9436 5.00080194150954 SES-12 1 43488U 18049A 26167.64908574 -.00000271 00000+0 00000+0 0 9993 2 43488 0.0166 18.5523 0000757 261.2118 313.8235 1.00268319 29417 O3B FM20 1 44112U 19020A 26167.41243891 -.00000020 00000+0 00000+0 0 9999 2 44112 0.0522 358.4095 0002436 78.5540 283.0626 5.00115529131539 O3B FM19 1 44113U 19020B 26166.24012182 -.00000017 00000+0 00000+0 0 9993 2 44113 0.0774 341.0648 0003893 86.9151 292.0614 5.00115871131346 O3B FM17 1 44114U 19020C 26167.31973316 -.00000020 00000+0 00000+0 0 9992 2 44114 0.0336 7.2668 0002576 76.3768 276.3847 5.00115517131483 O3B FM18 1 44115U 19020D 26167.26606398 -.00000020 00000+0 00000+0 0 9990 2 44115 0.0526 358.3822 0002763 87.3955 274.2529 5.00115289131609 SES-17 1 49332U 21095A 26166.28169904 -.00000268 00000+0 00000+0 0 9993 2 49332 0.0257 35.8759 0000966 102.3850 159.6161 1.00265893 17836 SES-22 1 52933U 22071A 26167.51473501 .00000103 00000+0 00000+0 0 9994 2 52933 0.0133 2.5926 0001253 69.2575 239.2195 1.00270771 7519 SES-20 1 53960U 22123A 26166.38430138 -.00000098 00000+0 00000+0 0 9990 2 53960 0.0340 70.6636 0001705 25.9912 202.2580 1.00268874 13516 SES-21 1 53961U 22123B 26166.51826676 .00000072 00000+0 00000+0 0 9993 2 53961 0.0265 28.0199 0000941 59.0670 232.2813 1.00269953 7192 O3B MPOWER F1 1 54755U 22174A 26167.41907566 -.00000020 00000+0 00000+0 0 9993 2 54755 0.0524 341.8692 0006418 117.0083 36.6361 5.00114922 65326 O3B MPOWER F2 1 54756U 22174B 26166.91080660 -.00000019 00000+0 00000+0 0 9993 2 54756 0.0483 341.2518 0005872 99.6314 279.1826 5.00115004 65385 SES-18 1 55970U 23038A 26165.95341218 -.00000096 00000+0 00000+0 0 9999 2 55970 0.0148 303.3095 0000258 342.6198 217.4462 1.00270931 12082 SES-19 1 55971U 23038B 26167.58688729 .00000086 00000+0 00000+0 0 9990 2 55971 0.0104 0.5342 0001381 80.6529 260.0435 1.00271189 12081 O3B MPOWER F4 1 56367U 23059A 26167.37484782 -.00000020 00000+0 00000+0 0 9992 2 56367 0.0635 354.8545 0007635 96.9852 268.2468 5.00115520 58566 O3B MPOWER F3 1 56368U 23059B 26167.20814461 -.00000020 00000+0 00000+0 0 9996 2 56368 0.0644 354.3438 0006722 89.7280 276.0040 5.00116464 54684 O3B MPOWER F5 1 58346U 23175A 26167.30911374 -.00000020 00000+0 00000+0 0 9995 2 58346 0.0490 11.5045 0005140 91.8019 256.7499 5.00116011 49397 O3B MPOWER F6 1 58347U 23175B 26167.40958206 -.00000020 00000+0 00000+0 0 9992 2 58347 0.0525 3.5272 0004510 77.2098 279.3128 5.00115870 48318 ASTRA 1P (SES-24) 1 60086U 24115A 26165.77259104 .00000126 00000+0 00000+0 0 9995 2 60086 0.0593 357.4016 0000904 356.3080 206.6982 1.00269642 7171 O3B MPOWER F7 1 62362U 24244A 26167.27606142 -.00000020 00000+0 00000+0 0 9996 2 62362 0.0680 348.5203 0006040 93.3507 278.1966 5.00115181 26488 O3B MPOWER F8 1 62363U 24244B 26167.44288864 -.00000020 00000+0 00000+0 0 9993 2 62363 0.0164 332.0587 0006000 102.1275 285.8788 5.00115101 20838 O3B MPOWER F9 1 64866U 25153A 26167.17642152 -.00000020 00000+0 00000+0 0 9997 2 64866 0.0585 10.0479 0006363 96.2975 253.7237 5.00115772 19510 O3B MPOWER F10 1 64867U 25153B 26167.34231348 -.00000020 00000+0 00000+0 0 9998 2 64867 0.0565 5.9751 0001886 251.7001 102.3025 5.00114822 21992